FREGAT DEB, 45835

Orbit data source: Space-Track

FREGAT DEB, 45835 is space debris in LEO originally from a launch on Mon, 18 Jul 2011 UTC launched from the Tyuratam Missile And Space Complex (TTMTR). Debris objects in space refer to the collection of defunct objects orbiting the Earth. Examples of debris include non-operational satellites, rocket bodies, and fragments generated from explosions, collisions, or faulty payload assembly.

Loading next visibility...
Identifier
45835, 2011-037BV
Orbit
LEO
Country
Flag of CISCIS
Related business
Manufacturer
Lavochkin
Mission
Spacecraft
Bus & Motor
Unknown
Mass
Unknown
Launch date (UTC)
2011-07-18 (15 years ago)
Launch vehicle
Unknown
Launch site
Tyuratam Missile And Space Complex (TTMTR)
Object type
Payload
Rocket body
Debris
Shape & HBR
Unknown shape, 0.1 m
Radar Cross Section
Small (<0.1 m²)

Expand to show TLE details & history
Last TLE update: 6 hours ago

TLE from 6 hours ago
0 FREGAT DEB
1 45835U 11037BV  26127.14148140  .00020188  00000-0  36664-2 0  9994
2 45835  51.4248  82.6595 1627282  31.3184 337.5024 11.85835497248429
Epoch: 2026-05-07T03:23Z
TLE epoch observation values (Epoch: 2026-05-07T03:23:43.992Z)
Latitude
-0.00006°
Longitude
166.73427°
Altitude
564.397 km
Speed
8.112 km/s
True Right ascension
05h 30m 38s
True Declination
0° 00' 00"
Sunlit
Object was in daylight at epoch
Visualization orbit readout
Latitude
Unknown
Longitude
Unknown
Altitude
Unknown
Speed
Unknown
Apparent Right ascension
Unknown
Apparent Declination
Unknown
Sunlit
N/A
Visualization observer readout
Local Sidereal Time
17:13:58
Azimuth
Unknown
Elevation
Unknown
Doppler factor
Unknown
Orbital elements
Apogee altitude
3,067.309 km
Perigee altitude
423.457 km
Semi-major axis
8,123.52 km
Eccentricity
0.16273
Inclination
51.4248°
RAAN
82.6595°
Arg. of periapsis
31.3184°
True anomaly
328.76973°
Mean anomaly
337.5024°
Eccentric anomaly
333.31534°
Mean motion
2.96433 °/min
Orbital period
121.44 mins
BSTAR
0.0036664
Loading maneuver chart data...
Computing Atmospheric mass density...
Loading historical data...
Loading historical data...
Loading historical data...
Loading historical data...
Loading historical data...
Loading historical data...
Loading historical data...

Documentation

Showing up to 5 results
|